Location: Burla
(50.9568°N, 10.4983°E)
Time: 05:03:38
(UTC+00:00)

Cosmos 921 Rocket - Visible Passes

Search period start: 21 April 2026 00:00
Search period end: 01 May 2026 00:00
Orbit: 563 x 620 km, 75.8° (Epoch: 20 April)

Date Brightness Start Highest point End Pass type
(mag) Time Alt. Az. Time Alt. Az. Time Alt. Az.
21 Apr 3.7 20:15:29 10° N 20:19:41 40° ENE 20:21:22 28° ESE visible
21 Apr 4.5 21:53:55 10° NW 21:57:34 26° W 21:57:57 26° WSW visible
22 Apr 3.2 20:24:02 10° NNW 20:28:25 60° ENE 20:30:06 34° SE visible
22 Apr 5.1 22:03:05 10° NW 22:06:00 18° W 22:06:41 17° WSW visible
23 Apr 2.9 20:32:39 10° NNW 20:37:05 90° N 20:38:51 36° SSE visible
23 Apr 5.5 22:12:52 10° WNW 22:14:23 12° W 22:15:26 11° WSW visible
24 Apr 4.7 19:03:52 10° N 19:07:13 21° NE 19:10:31 10° ESE visible
24 Apr 3.4 20:41:21 10° NNW 20:45:41 59° WSW 20:47:38 30° S visible
25 Apr 4.2 19:12:13 10° N 19:16:04 28° ENE 19:19:50 10° ESE visible
25 Apr 4.1 20:50:09 10° NW 20:54:14 39° WSW 20:56:27 22° SSW visible
26 Apr 3.7 19:20:41 10° N 19:24:51 40° ENE 19:28:42 11° SE visible
26 Apr 4.8 20:59:06 10° NW 21:02:43 26° W 21:05:17 15° SW visible
27 Apr 3.2 19:29:13 10° NNW 19:33:34 60° ENE 19:37:34 11° SE visible
27 Apr 5.3 21:08:17 10° NW 21:11:10 17° W 21:14:00 10° SW visible
28 Apr 3.0 19:37:50 10° NNW 19:42:14 90° W 19:46:29 10° SSE visible
28 Apr 5.7 21:18:07 10° WNW 21:19:32 11° W 21:20:56 10° WSW visible
29 Apr 3.5 19:46:32 10° NNW 19:50:50 59° WSW 19:55:01 10° S visible
30 Apr 4.3 19:55:20 10° NW 19:59:23 38° WSW 20:03:20 10° S visible
